Location: Norton
(51.3000°N, 0.8167°E)
Time: 14:00:44
(UTC+00:00)

GP-B - Pass Details

Date: 03 March 2021
Orbit: 631 x 634 km, 89.8° (Epoch: 11 April)

Event Time Altitude Azimuth Distance (km) Brightness Sun altitude
Rises 19:22:49 0° 181° (S) 2,920 6.4 -16.6°
Reaches altitude 10° 19:25:02 10° 183° (S) 2,017 5.6 -17.0°
Maximum altitude 19:29:28 76° 268° (W) 661 3.3 -17.6°
Drops below altitude 10° 19:33:57 10° 356° (N) 2,034 5.9 -18.3°
Sets 19:36:11 0° 358° (N) 2,948 6.7 -18.7°
